Wind_Speed
24 24 26 26 26 28 28 29 30 30 31 32 32 31 32 33 35 36 36 37 37 38 39 39 40 41 42 42 43 43 43 43 44 46 46 46 46 47 47 47 47 46 46 46
24 25 26 27 27 27 28 29 29 29 30 31 32 31 31 33 34 35 36 36 37 38 38 39 39 40 41 41 42 42 43 43 44 45 45 45 45 46 46 46 46 47 47 47
25 25 25 26 27 27 28 29 29 30 31 32 32 30 30 31 32 33 34 36 36 37 38 38 39 40 40 40 41 42 43 43 44 45 45 45 45 46 46 46 47 48 48 48
25 25 25 26 27 27 27 27 28 29 30 31 31 32 28 29 30 31 33 34 36 36 37 39 39 39 40 40 41 41 42 43 44 45 45 45 45 45 46 46 47 48 48 48
25 25 25 25 26 27 27 28 28 28 29 30 30 32 29 29 29 30 31 33 34 35 36 37 39 39 39 40 40 41 42 42 43 44 44 44 45 46 46 47 46 47 47 48
25 25 25 25 26 27 27 28 29 29 30 30 28 31 29 28 28 28 30 31 32 33 34 36 37 38 39 39 39 40 41 42 42 43 43 44 45 45 46 46 46 46 46 47
26 25 25 25 25 26 27 28 29 30 30 29 28 29 28 27 27 27 28 29 30 33 34 35 35 36 37 38 38 39 40 41 42 43 43 43 43 44 45 45 45 45 45 46
27 26 26 26 26 26 27 27 28 30 30 29 28 28 27 27 26 27 27 28 30 32 33 34 35 36 36 37 38 38 40 40 41 42 42 42 42 42 43 44 44 45 46 46
27 27 27 27 26 27 27 26 27 29 30 29 28 28 27 27 28 28 28 28 29 31 33 34 35 36 37 37 37 38 39 40 40 41 41 41 41 41 42 43 44 45 45 45
27 27 27 27 28 28 28 27 28 28 30 30 29 28 27 26 27 27 28 29 30 31 32 32 34 35 36 36 37 37 38 39 39 40 40 40 41 41 41 42 43 44 44 44
28 28 28 28 28 28 28 28 29 29 30 31 30 27 27 26 26 27 27 28 29 29 30 31 32 33 34 35 36 37 37 37 38 38 39 39 40 40 40 40 41 42 43 43
28 29 28 28 28 28 29 29 29 30 30 30 31 28 27 27 27 26 27 27 27 28 29 30 31 32 33 34 35 35 36 36 36 37 38 38 39 39 40 40 40 41 41 42
28 28 28 29 29 28 29 28 29 30 30 30 30 28 27 26 27 27 27 27 27 28 29 29 30 31 31 32 34 34 35 36 36 36 37 38 38 39 39 39 39 40 39 40
29 29 29 29 29 28 28 28 28 30 31 31 30 28 26 27 27 27 28 28 28 28 29 29 29 30 31 32 33 33 34 35 35 36 37 37 37 38 38 38 39 39 39 39
30 30 29 29 28 28 28 27 28 29 30 31 30 29 28 28 27 28 28 28 28 28 28 29 29 30 30 31 32 33 33 33 34 35 35 36 36 37 38 38 38 38 38 38
30 30 30 30 29 29 28 27 27 28 29 29 29 29 28 28 28 28 29 28 28 29 29 29 29 30 30 30 31 31 31 32 32 33 34 34 35 36 36 37 36 37 37 37
29 30 31 30 30 30 29 27 28 28 27 28 28 27 28 29 28 28 28 28 29 29 29 29 30 30 30 30 29 30 30 30 31 32 32 33 34 35 35 35 35 35 34 35
29 30 31 31 31 31 29 28 28 28 28 28 28 28 28 28 29 29 29 29 29 28 28 28 29 29 29 29 29 29 29 30 31 31 31 32 33 34 34 34 34 33 32 31
30 30 32 32 33 32 30 28 28 29 28 28 29 28 28 28 29 29 29 29 29 28 28 28 28 28 28 29 29 29 29 29 30 30 30 30 30 31 31 31 30 30 29 29
29 30 31 31 32 32 30 29 29 30 30 28 28 28 28 28 28 28 29 29 29 29 28 28 27 27 28 28 28 28 28 28 29 29 29 29 29 30 29 29 28 27 26 26
28 29 30 30 31 31 29 29 29 30 29 29 28 28 28 29 29 29 29 29 29 28 28 27 27 28 28 28 28 28 27 27 27 27 28 28 28 27 27 26 26 26 25 25
28 29 30 30 31 30 29 30 30 29 29 28 27 27 28 29 29 29 29 28 28 28 27 28 28 28 28 28 28 27 27 26 26 26 26 26 26 26 25 24 25 24 24 24
27 28 30 30 31 30 30 30 30 29 29 27 27 27 28 28 29 29 29 28 28 28 28 28 28 28 27 27 27 27 26 25 24 24 25 25 25 24 23 23 23 22 22 22
27 28 29 30 30 30 29 29 29 29 28 27 27 27 28 28 28 28 28 27 27 27 27 27 27 26 26 25 25 24 23 23 23 23 23 23 22 22 21 21 21 21 21 21
28 28 29 29 28 28 27 28 29 28 27 26 26 26 27 28 27 27 27 26 26 26 27 27 26 26 25 25 24 24 23 23 22 22 22 22 20 20 19 19 20 20 20 20
27 27 28 27 26 27 26 27 27 27 27 27 27 26 26 26 26 26 26 26 25 25 25 25 25 24 24 24 23 23 23 22 22 22 20 19 18 18 18 18 19 19 19 19
Wind_Direction
284 282 279 278 276 275 274 274 273 271 269 269 269 269 266 263 260 259 258 258 258 258 258 257 257 257 258 258 258 258 257 258 258 258 259 259 259 260 260 260 261 262 262 263
287 283 281 279 278 278 277 276 274 272 273 272 271 270 267 265 263 261 260 259 259 259 258 258 258 258 258 259 258 257 258 259 259 259 259 260 260 261 261 261 262 262 263 263
288 287 284 281 279 279 279 279 277 277 276 275 274 271 269 267 265 263 261 260 260 260 260 259 260 260 259 259 259 258 258 259 260 260 260 259 259 261 261 261 262 262 262 263
289 287 285 283 281 279 278 280 281 280 278 277 276 275 270 268 267 265 263 262 261 261 261 260 260 260 259 259 258 259 260 260 260 260 259 260 260 261 262 263 263 264 264 264
290 288 286 284 283 282 281 279 279 280 280 278 278 278 274 270 268 266 265 264 263 263 263 262 260 260 260 260 259 260 260 260 260 260 260 260 260 261 263 263 264 264 265 265
289 288 286 286 285 285 283 281 280 280 280 279 279 278 277 275 272 269 267 265 265 264 263 263 262 261 261 262 261 260 260 259 260 260 261 260 261 262 263 263 264 264 265 265
287 286 286 285 285 286 286 284 282 282 281 280 279 278 279 278 275 271 267 266 266 265 265 264 264 263 263 263 263 263 262 260 260 261 261 262 262 263 263 263 264 264 265 266
288 286 286 285 285 286 286 286 284 284 284 283 280 279 279 278 276 273 270 267 266 265 265 266 265 265 265 264 264 264 264 263 262 262 262 262 263 263 264 264 264 265 266 266
289 286 286 285 284 285 286 285 285 284 284 285 284 282 279 278 276 274 272 270 270 269 267 268 267 266 266 265 265 265 265 265 265 265 264 264 264 264 265 266 266 266 266 266
291 289 287 285 284 284 284 284 283 283 284 284 285 285 284 280 278 276 275 274 272 271 271 271 270 269 267 265 265 265 266 267 268 267 266 266 266 266 267 268 268 267 268 268
290 290 289 287 286 284 283 281 280 281 282 283 284 285 284 283 281 279 278 277 275 272 271 272 272 271 269 267 266 266 266 268 269 269 268 267 266 267 267 269 270 270 270 269
289 289 289 289 288 285 283 281 280 280 281 281 282 284 284 283 283 283 283 281 278 275 274 273 274 273 271 270 269 268 268 269 269 269 269 268 267 267 268 269 270 271 270 269
289 288 289 288 287 286 284 282 279 279 278 278 280 282 284 283 283 283 283 281 280 279 278 277 278 277 275 273 272 271 270 271 270 269 270 269 269 269 270 270 271 271 270 269
285 286 288 289 288 287 286 284 281 279 278 277 278 279 280 281 282 282 282 282 281 281 281 280 280 280 277 275 274 272 272 272 272 271 271 271 271 271 271 272 271 271 271 271
284 285 287 287 286 285 285 286 283 281 279 278 278 278 279 280 282 281 281 282 281 280 281 282 281 281 280 277 275 273 273 274 274 273 272 272 272 272 273 273 272 271 271 272
283 285 286 285 284 283 283 285 285 283 281 280 279 277 276 279 281 281 281 281 281 281 282 283 282 282 283 281 279 277 276 276 276 275 274 273 273 273 274 274 273 273 272 272
282 283 285 285 284 283 284 287 287 287 285 282 279 277 276 277 279 281 281 281 281 282 283 283 284 283 284 283 282 281 279 279 279 277 276 275 275 275 275 274 274 275 274 273
281 282 283 283 283 284 288 288 287 286 285 283 280 277 277 278 278 280 281 282 282 282 283 284 285 284 284 284 283 283 283 283 282 280 278 278 277 276 276 274 273 274 274 275
282 282 283 283 284 285 287 288 286 284 283 283 281 278 277 279 279 280 282 282 283 282 283 284 284 284 284 285 284 284 284 284 283 281 279 280 279 278 278 275 273 274 275 275
282 282 283 284 285 288 290 288 287 286 284 283 281 280 279 279 279 281 281 282 282 282 283 283 284 285 285 286 286 286 285 283 283 282 279 281 281 281 278 274 272 273 274 275
283 282 282 284 285 288 290 289 288 287 287 284 281 280 279 280 281 282 281 283 283 282 282 282 282 284 286 286 286 287 287 284 282 281 280 281 282 280 278 273 272 272 273 273
284 284 285 285 286 290 291 288 287 287 286 284 281 281 282 283 283 283 283 283 283 282 282 282 282 284 286 287 286 287 286 283 282 283 282 282 282 281 277 272 272 272 272 272
285 286 286 286 287 288 288 286 287 287 285 283 282 281 282 283 284 283 282 282 283 283 283 284 283 284 284 286 286 288 286 283 283 284 285 284 283 279 275 271 270 271 272 272
284 285 285 285 286 285 286 285 286 286 285 283 282 281 283 284 284 283 281 282 284 284 284 283 282 283 284 285 285 286 286 285 285 285 286 285 283 278 273 268 269 271 272 272
284 284 285 285 286 285 284 284 284 284 283 281 281 281 283 283 284 283 281 282 284 286 287 286 284 284 284 285 284 283 285 287 286 285 286 283 279 277 272 270 271 271 272 272
283 284 285 286 286 286 286 284 282 281 281 280 280 281 282 283 284 286 285 285 287 288 288 288 287 285 284 284 284 283 284 286 286 285 284 281 278 275 271 270 272 272 271 270
Height
5674 5674 5672 5671 5669 5668 5667 5667 5667 5667 5667 5667 5667 5668 5669 5670 5670 5671 5673 5674 5676 5677 5679 5681 5682 5683 5685 5686 5688 5689 5690 5692 5694 5695 5696 5698 5700 5701 5703 5704 5706 5707 5708 5709
5669 5668 5666 5664 5663 5662 5661 5660 5660 5660 5660 5659 5659 5661 5661 5661 5662 5663 5664 5665 5666 5668 5669 5671 5672 5673 5675 5676 5678 5679 5681 5682 5683 5684 5686 5687 5689 5690 5692 5693 5694 5695 5696 5698
5663 5663 5660 5658 5657 5656 5655 5654 5653 5653 5652 5651 5651 5653 5654 5654 5654 5654 5655 5656 5657 5658 5660 5661 5663 5664 5665 5666 5667 5668 5670 5671 5672 5674 5675 5676 5678 5679 5681 5682 5683 5683 5684 5685
5657 5656 5654 5652 5651 5649 5649 5648 5647 5645 5644 5644 5644 5643 5647 5646 5646 5646 5647 5647 5648 5649 5650 5651 5653 5654 5655 5656 5657 5659 5660 5661 5662 5663 5665 5666 5667 5668 5670 5671 5671 5672 5673 5673
5651 5650 5648 5646 5645 5643 5642 5641 5640 5638 5637 5637 5637 5635 5639 5638 5638 5639 5639 5639 5639 5640 5641 5642 5643 5644 5645 5646 5647 5648 5649 5650 5651 5652 5654 5655 5656 5657 5658 5659 5659 5660 5660 5661
5645 5643 5642 5641 5639 5637 5636 5635 5633 5631 5630 5630 5631 5628 5630 5630 5630 5631 5631 5631 5631 5631 5632 5632 5633 5635 5635 5636 5637 5637 5639 5640 5641 5641 5642 5643 5644 5645 5646 5646 5647 5648 5648 5648
5639 5638 5636 5634 5633 5632 5630 5628 5626 5624 5623 5623 5623 5622 5624 5623 5623 5622 5622 5622 5622 5622 5623 5623 5624 5625 5626 5626 5627 5627 5628 5629 5630 5630 5631 5632 5633 5633 5634 5634 5635 5635 5635 5636
5632 5632 5630 5628 5627 5625 5623 5622 5620 5618 5616 5616 5616 5615 5618 5617 5616 5615 5615 5614 5614 5613 5614 5614 5615 5616 5616 5617 5617 5617 5618 5618 5619 5619 5620 5620 5621 5622 5622 5622 5622 5623 5623 5623
5625 5625 5623 5621 5620 5619 5617 5615 5614 5612 5609 5608 5608 5609 5610 5610 5608 5608 5607 5607 5606 5606 5605 5605 5606 5606 5606 5607 5607 5608 5608 5608 5608 5609 5609 5609 5610 5610 5610 5610 5610 5610 5611 5611
5618 5617 5617 5615 5613 5612 5611 5609 5607 5605 5602 5601 5602 5602 5603 5602 5601 5601 5600 5599 5598 5598 5597 5596 5596 5596 5596 5597 5597 5597 5598 5598 5598 5598 5598 5598 5599 5599 5599 5599 5599 5598 5598 5598
5612 5610 5609 5608 5606 5605 5604 5603 5600 5598 5596 5595 5594 5598 5596 5595 5594 5593 5593 5592 5591 5590 5589 5589 5588 5587 5587 5587 5587 5587 5588 5588 5588 5587 5587 5587 5587 5588 5588 5587 5587 5587 5586 5586
5605 5603 5601 5601 5599 5597 5596 5595 5594 5592 5591 5589 5587 5592 5590 5588 5587 5586 5585 5584 5583 5582 5581 5580 5579 5579 5578 5578 5578 5578 5578 5578 5578 5577 5577 5576 5577 5577 5576 5576 5576 5575 5574 5573
5598 5596 5594 5593 5594 5591 5589 5588 5586 5585 5583 5582 5581 5585 5583 5582 5580 5579 5578 5577 5576 5575 5573 5572 5571 5570 5569 5569 5568 5568 5568 5568 5567 5567 5566 5566 5566 5566 5565 5565 5564 5563 5563 5562
5590 5588 5588 5586 5585 5583 5581 5580 5579 5577 5575 5575 5575 5576 5577 5574 5573 5572 5571 5569 5568 5567 5566 5564 5563 5562 5560 5560 5559 5558 5558 5558 5557 5557 5556 5556 5556 5555 5554 5554 5553 5552 5551 5551
5582 5581 5580 5578 5577 5575 5574 5573 5571 5569 5568 5567 5568 5568 5568 5567 5566 5565 5563 5562 5560 5559 5558 5557 5555 5554 5552 5551 5550 5549 5549 5548 5547 5547 5546 5546 5545 5545 5544 5543 5542 5541 5540 5540
5575 5574 5572 5571 5569 5567 5566 5566 5564 5562 5561 5560 5559 5560 5560 5559 5558 5556 5555 5554 5553 5551 5550 5549 5547 5546 5544 5543 5541 5540 5540 5539 5538 5537 5536 5536 5535 5534 5534 5533 5531 5531 5530 5529
5568 5566 5564 5563 5562 5559 5559 5560 5558 5556 5554 5553 5552 5553 5552 5551 5550 5549 5547 5546 5545 5544 5542 5541 5539 5538 5536 5535 5533 5532 5531 5530 5529 5528 5527 5526 5525 5524 5523 5522 5521 5520 5519 5519
5560 5558 5556 5555 5554 5551 5555 5552 5550 5548 5547 5546 5544 5544 5544 5543 5542 5541 5540 5538 5537 5536 5534 5533 5531 5530 5528 5527 5525 5524 5523 5521 5520 5519 5518 5517 5515 5514 5513 5512 5511 5510 5510 5509
5553 5551 5548 5546 5544 5543 5546 5545 5542 5540 5540 5539 5537 5536 5536 5535 5533 5533 5532 5530 5529 5528 5527 5525 5523 5522 5520 5519 5517 5516 5515 5513 5512 5510 5509 5507 5506 5505 5504 5503 5502 5502 5501 5501
5545 5543 5541 5539 5536 5535 5538 5537 5534 5532 5531 5532 5529 5528 5528 5526 5526 5526 5524 5523 5521 5520 5519 5517 5516 5514 5513 5511 5509 5508 5507 5505 5504 5502 5501 5499 5498 5497 5496 5495 5494 5494 5494 5493
5537 5535 5534 5531 5528 5527 5529 5528 5526 5525 5525 5524 5521 5520 5520 5519 5518 5517 5515 5514 5513 5512 5511 5509 5508 5507 5505 5503 5502 5500 5499 5497 5496 5494 5493 5492 5490 5489 5488 5487 5487 5487 5487 5486
5529 5527 5526 5524 5521 5523 5521 5519 5518 5517 5516 5514 5513 5512 5511 5510 5509 5508 5507 5506 5505 5504 5503 5501 5500 5498 5497 5495 5494 5492 5491 5489 5488 5487 5486 5484 5483 5481 5481 5480 5480 5480 5480 5480
5522 5521 5518 5517 5517 5515 5512 5510 5509 5508 5507 5506 5505 5504 5503 5502 5501 5500 5499 5498 5496 5495 5494 5493 5491 5490 5489 5488 5486 5485 5484 5482 5480 5479 5478 5477 5476 5475 5474 5474 5474 5473 5473 5473
5514 5512 5510 5508 5507 5506 5504 5502 5501 5500 5499 5498 5497 5496 5495 5494 5493 5492 5491 5490 5488 5487 5486 5485 5483 5482 5481 5480 5479 5478 5476 5475 5474 5472 5471 5470 5469 5468 5468 5468 5468 5468 5468 5467
5506 5504 5501 5499 5499 5497 5496 5494 5493 5492 5491 5490 5489 5488 5487 5486 5485 5484 5483 5482 5481 5479 5478 5476 5475 5474 5473 5473 5472 5470 5469 5468 5467 5466 5465 5464 5463 5462 5462 5462 5462 5462 5462 5462
5499 5496 5494 5492 5491 5489 5489 5487 5485 5483 5483 5482 5481 5480 5480 5479 5478 5477 5475 5474 5473 5472 5470 5469 5467 5466 5465 5464 5464 5463 5462 5461 5460 5459 5458 5458 5457 5457 5457 5457 5457 5457 5457 5457